[[{"header":{"parameterUnit":"m.s-1","parameterCategory":2,"la1":30.2991,"la2":30.254,"lo1":-89.0895,"lo2":-89.0444,"dy":0.0017,"dx":0.0017,"nx":28,"ny":28,"refTime":"2024-08-31T09:00:00:Z","depth":"0","parameterNumber":2,"parameterNumberName":"U-component_of_CURRENTS"},"data":[0,0,0,0,0,0,0,0,0,0,0,0,0,0,0,0,0,0,0,0,0,0,0,0,0,0,0,0,0,0,0,0,0,0,0,0,0,0,0,0,0,0,0,0,0,0,0,0,0,0,0,0,0,0,0,0,0,0,0.2012,0.2012,0,0.1974,0.1973,0.1972,0.1937,0.1937,0.1938,0.1938,0.1788,0.1784,0.178,0,0,0,0,0,0,0,0,0,0,0,0,0,0.1963,0.1964,0.2012,0.2012,0.2012,0.1974,0.1973,0.1972,0.1937,0.1937,0.1938,0.1938,0.1789,0.1784,0.1779,0,0,0,0,0,0,0,0,0,0,0,0,0,0.1954,0.1964,0.2012,0.1995,0.1994,0.1974,0.1973,0.1972,0.1937,0.1937,0.1938,0.1938,0.1791,0.1785,0.1778,0.1734,0,0,0.1759,0.1757,0,0,0,0,0,0,0,0,0.1955,0.1955,0.1998,0.1996,0.1995,0.1967,0.1901,0.1889,0.1937,0.1951,0.1938,0.1938,0.1841,0.1831,0.1815,0.1727,0.172,0.1759,0.1755,0.1752,0.175,0,0,0,0,0,0,0,0.1956,0.1956,0.199,0.1998,0.1996,0.1959,0.1958,0.1898,0.1888,0.195,0.1949,0.1956,0.1839,0.1821,0.1811,0.1718,0.1759,0.1753,0.1749,0.1747,0.1634,0.1635,0,0,0,0,0,0,0.1979,0.1958,0.1991,0.199,0.1983,0.1961,0.1959,0.197,0.1891,0.1882,0.1956,0.1955,0.1832,0.1818,0.1806,0.1799,0.1752,0.1746,0.1743,0.1633,0.1634,0.1635,0,0,0,0,0,0,0.1978,0.1982,0.1993,0.1977,0.1977,0.1963,0.1974,0.1969,0.1961,0.1898,0.1885,0.1954,0.1832,0.1814,0.1776,0.1791,0.1744,0.1738,0.1633,0.1634,0.1635,0.1752,0,0,0,0,0,0,0.1977,0.1982,0.1986,0.198,0.1979,0.1988,0.1974,0.1968,0.1967,0.1965,0.1892,0.1878,0.183,0.1786,0.177,0.1781,0.1733,0.1632,0.1633,0.1634,0.1747,0.1757,0.1765,0,0,0,0,0,0.1975,0.1973,0.1986,0.199,0.1989,0.1989,0.1984,0.1969,0.1967,0.1962,0.1928,0.1881,0.1783,0.1781,0.1762,0.1772,0.1631,0.1633,0.1634,0.1743,0.1755,0.1765,0,0,0,0,0,0,0.1934,0.197,0.1984,0.1989,0.1998,0.1986,0.1973,0.1976,0.1945,0.1938,0.1885,0.1868,0.1842,0.1789,0.1788,0.1745,0.17,0.1698,0.179,0.18,0.1809,0.1789,0.1728,0,0,0,0,0,0.1937,0.1952,0.1978,0.1978,0.1988,0.1986,0.1982,0.198,0.1961,0.1948,0.191,0.1864,0.1831,0.1804,0.1758,0.1725,0.1697,0.172,0.173,0.1738,0.1709,0.1704,0.1711,0.1641,0.1641,0.1641,0,0,0.1918,0.194,0.1946,0.1972,0.1972,0.1982,0.1981,0.1979,0.1983,0.1933,0.1913,0.189,0.1831,0.1809,0.1791,0.1766,0.1753,0.174,0.1748,0.1713,0.1707,0.1713,0.172,0.1642,0.1642,0.1642,0,0,0.1893,0.1914,0.1926,0.1942,0.1964,0.1968,0.1978,0.1984,0.1981,0.1971,0.1948,0.194,0.1872,0.1851,0.1828,0.1852,0.1806,0.1841,0.1863,0.1861,0.1866,0.1871,0.1893,0.1899,0.1842,0.1842,0.1842,0,0.1869,0.1897,0.1923,0.1942,0.1952,0.197,0.1981,0.1981,0.1974,0.1967,0.1973,0.1918,0.1891,0.1866,0.1891,0.1872,0.1867,0.1833,0.1874,0.1878,0.188,0.1901,0.1906,0.1848,0.1847,0.1847,0.1846,0,0.1869,0.1888,0.189,0.1932,0.1942,0.1949,0.1975,0.1978,0.1988,0.1987,0.1976,0.1959,0.192,0.1936,0.1921,0.1927,0.1921,0.1896,0.1852,0.1895,0.1914,0.1917,0.1856,0.1854,0.1852,0.1851,0,0,0.182,0.1883,0.1882,0.1901,0.1941,0.1944,0.1958,0.197,0.1964,0.1977,0.1963,0.1968,0.1963,0.1936,0.1934,0.1947,0.2007,0.1936,0.1933,0.1967,0.2023,0.1949,0.1945,0.1995,0.1995,0.1995,0.2048,0,0.1812,0.1849,0.188,0.1895,0.1916,0.1939,0.1946,0.1955,0.196,0.1949,0.1954,0.1937,0.1962,0.1956,0.1977,0.1975,0.2009,0.1995,0.1964,0.1963,0.19,0.1942,0.1784,0.1809,0.205,0.205,0.205,0,0.1805,0.1833,0.186,0.189,0.1898,0.1903,0.1909,0.1916,0.1911,0.1913,0.1908,0.1904,0.1919,0.1939,0.1972,0.1961,0.2,0.2019,0.2021,0.1896,0.1891,0.1793,0.1804,0.1633,0.2053,0.2053,0.2053,0,0.1768,0.181,0.1832,0.1846,0.1886,0.1883,0.189,0.1894,0.1885,0.188,0.1865,0.188,0.1871,0.1915,0.1958,0.1969,0.1992,0.2007,0.1987,0.1984,0.1806,0.1786,0.1641,0.2044,0.2044,0.2044,0.2044,0,0.1752,0.1757,0.1812,0.1821,0.1819,0.1852,0.1832,0.1841,0.1832,0.1803,0.1834,0.1811,0.1864,0.1881,0.1942,0.1954,0.198,0.1983,0.1981,0.1848,0.1832,0.1637,0.1611,0.2046,0.2046,0.2045,0.2045,0,0.17,0.1744,0.1765,0.1804,0.1805,0.1798,0.1791,0.177,0.1777,0.1738,0.1734,0.1752,0.1772,0.1828,0.1888,0.191,0.1856,0.1956,0.1807,0.1785,0.1591,0.158,0.1484,0.146,0.1938,0.1937,0.1935,0,0.1674,0.1688,0.1737,0.1735,0.1746,0.1737,0.172,0.1734,0.1708,0.1695,0.1664,0.1678,0.1677,0.1728,0.1757,0.1826,0.1784,0.1722,0.1706,0.1539,0.1527,0.1537,0.1527,0.1553,0.1548,0.1544,0.1542,0,0.162,0.1649,0.1671,0.1676,0.1666,0.1644,0.1621,0.1605,0.1607,0.1582,0.1549,0.1553,0.1576,0.1551,0.1616,0.1632,0.1555,0.1649,0.1496,0.1216,0.1196,0.1183,0.1589,0.1509,0.1512,0.1515,0.1516,0.1518,0.1568,0.1573,0.161,0.1602,0.1589,0.1547,0.15,0.149,0.1452,0.1397,0.1438,0.14,0.1358,0.1413,0.1395,0.1187,0.1367,0.1119,0.1131,0.1167,0.108,0.1424,0.1321,0.1323,0.1325,0.1326,0.1328,0,0.1492,0.1515,0.1519,0.1508,0.1459,0.147,0.142,0.1365,0.1309,0.1293,0.1261,0.1166,0.106,0.099,0.0792,0.0667,0.0688,0.0594,0.0532,0.0565,0.0845,0.0754,0.0495,0.0495,0.0495,0.0495,0.0496,0.0496,0.1454,0.1447,0.1461,0.1381,0.1354,0.1258,0.1215,0.1164,0.114,0.1047,0.0981,0.0976,0.0791,0.0436,0.014,0.0123,0.009,0.0076,0.0168,0.0266,0.0314,0.036,0.0261,-0.0097,-0.0097,-0.018,-0.0182,-0.0183]},{"header":{"parameterUnit":"m.s-1","parameterCategory":2,"la1":30.2991,"la2":30.254,"lo1":-89.0895,"lo2":-89.0444,"dy":0.0017,"dx":0.0017,"nx":28,"ny":28,"refTime":"2024-08-31T09:00:00:Z","depth":"0","parameterNumber":3,"parameterNumberName":"V-component_of_CURRENTS"},"data":[0,0,0,0,0,0,0,0,0,0,0,0,0,0,0,0,0,0,0,0,0,0,0,0,0,0,0,0,0,0,0,0,0,0,0,0,0,0,0,0,0,0,0,0,0,0,0,0,0,0,0,0,0,0,0,0,0,0,-0.0622,-0.0622,0,-0.0619,-0.0619,-0.0619,-0.0624,-0.0624,-0.0624,-0.0625,-0.0601,-0.06,-0.0599,0,0,0,0,0,0,0,0,0,0,0,0,0,-0.0584,-0.0584,-0.0622,-0.0622,-0.0622,-0.0619,-0.0619,-0.0619,-0.0624,-0.0624,-0.0625,-0.0625,-0.0602,-0.06,-0.0599,0,0,0,0,0,0,0,0,0,0,0,0,0,-0.0591,-0.0585,-0.0622,-0.0626,-0.0626,-0.0619,-0.0619,-0.0619,-0.0624,-0.0624,-0.0625,-0.0625,-0.0602,-0.0601,-0.0599,-0.058,0,0,-0.0595,-0.0594,0,0,0,0,0,0,0,0,-0.059,-0.0592,-0.0625,-0.0625,-0.0626,-0.0624,-0.0597,-0.0605,-0.0623,-0.0622,-0.0625,-0.0625,-0.0608,-0.0606,-0.0602,-0.0579,-0.0578,-0.0595,-0.0594,-0.0593,-0.0593,0,0,0,0,0,0,0,-0.059,-0.0592,-0.0619,-0.0625,-0.0626,-0.0611,-0.0613,-0.0598,-0.061,-0.0623,-0.0623,-0.0626,-0.0608,-0.0603,-0.0601,-0.0577,-0.0595,-0.0593,-0.0593,-0.0592,-0.0506,-0.0504,0,0,0,0,0,0,-0.0596,-0.0592,-0.0619,-0.0619,-0.0611,-0.0612,-0.0614,-0.0623,-0.0611,-0.061,-0.0626,-0.0626,-0.0605,-0.0603,-0.06,-0.0567,-0.0593,-0.0592,-0.0591,-0.0507,-0.0505,-0.0504,0,0,0,0,0,0,-0.0596,-0.0599,-0.0619,-0.0606,-0.0608,-0.0613,-0.0622,-0.0622,-0.062,-0.0614,-0.0613,-0.0624,-0.0606,-0.0602,-0.0579,-0.0567,-0.0591,-0.059,-0.0509,-0.0506,-0.0504,-0.0507,0,0,0,0,0,0,-0.0595,-0.0599,-0.0601,-0.0607,-0.0609,-0.061,-0.0622,-0.0622,-0.0622,-0.0623,-0.0612,-0.061,-0.0606,-0.0581,-0.0578,-0.0565,-0.0589,-0.051,-0.0508,-0.0505,-0.0509,-0.0506,-0.0503,0,0,0,0,0,-0.0593,-0.0591,-0.0601,-0.0604,-0.0615,-0.061,-0.0609,-0.0613,-0.0621,-0.0613,-0.0604,-0.061,-0.0561,-0.0579,-0.0575,-0.0562,-0.0512,-0.0508,-0.0505,-0.0511,-0.0506,-0.0503,0,0,0,0,0,0,-0.057,-0.0592,-0.0603,-0.0607,-0.0609,-0.0612,-0.0605,-0.0611,-0.0599,-0.0597,-0.0596,-0.0593,-0.0565,-0.0558,-0.0577,-0.0525,-0.0535,-0.0531,-0.0541,-0.0537,-0.0533,-0.0541,-0.0588,0,0,0,0,0,-0.0569,-0.0576,-0.0591,-0.0591,-0.0595,-0.0601,-0.0599,-0.0601,-0.0595,-0.0591,-0.0585,-0.0569,-0.0547,-0.0539,-0.0517,-0.0494,-0.046,-0.0479,-0.0476,-0.0474,-0.0474,-0.0398,-0.0388,-0.0493,-0.0493,-0.0493,0,0,-0.0559,-0.0572,-0.0575,-0.0587,-0.0589,-0.0592,-0.06,-0.0594,-0.0593,-0.0589,-0.0577,-0.0557,-0.0536,-0.0507,-0.0494,-0.0503,-0.0423,-0.0469,-0.0468,-0.047,-0.0394,-0.0383,-0.0374,-0.0491,-0.0491,-0.0492,0,0,-0.0544,-0.0556,-0.056,-0.0564,-0.0571,-0.0574,-0.0574,-0.0577,-0.0575,-0.0559,-0.0551,-0.0523,-0.0499,-0.0479,-0.0467,-0.043,-0.0405,-0.0422,-0.0419,-0.0344,-0.0335,-0.0327,-0.0266,-0.0252,-0.0424,-0.0424,-0.0424,0,-0.0533,-0.055,-0.0556,-0.0562,-0.0569,-0.057,-0.0575,-0.0567,-0.0559,-0.0554,-0.0553,-0.0498,-0.0484,-0.0447,-0.0436,-0.0424,-0.0381,-0.0442,-0.0341,-0.0332,-0.0324,-0.0263,-0.0248,-0.0424,-0.0424,-0.0424,-0.0424,0,-0.0528,-0.0541,-0.054,-0.0557,-0.0556,-0.0557,-0.0559,-0.055,-0.0549,-0.0541,-0.0502,-0.0471,-0.0441,-0.0427,-0.0425,-0.0361,-0.0348,-0.0344,-0.0357,-0.0314,-0.0252,-0.0236,-0.0424,-0.0424,-0.0424,-0.0424,0,0,-0.0514,-0.0538,-0.0539,-0.0553,-0.056,-0.056,-0.0552,-0.0549,-0.0539,-0.0513,-0.0488,-0.0448,-0.0428,-0.0411,-0.0392,-0.0335,-0.0241,-0.032,-0.0316,-0.0269,-0.0076,-0.009,-0.0074,-0.0215,-0.0213,-0.0211,-0.0056,0,-0.0516,-0.0537,-0.0544,-0.0555,-0.057,-0.0568,-0.0561,-0.0549,-0.0532,-0.05,-0.0458,-0.042,-0.0423,-0.0398,-0.0343,-0.0261,-0.0199,-0.0283,-0.0116,-0.0111,-0.0136,-0.0056,-0.0018,0.0121,-0.004,-0.0038,-0.0036,0,-0.0517,-0.0537,-0.0558,-0.0574,-0.0578,-0.0576,-0.0568,-0.0559,-0.0515,-0.0495,-0.0449,-0.0413,-0.0336,-0.0335,-0.018,-0.0231,-0.0157,-0.0094,-0.0086,-0.009,-0.0095,0.0053,0.0156,0.0167,-0.0011,-0.0013,-0.0015,0,-0.0518,-0.0544,-0.0565,-0.0572,-0.0585,-0.0587,-0.0585,-0.0558,-0.0533,-0.0482,-0.0439,-0.0365,-0.0296,-0.0198,-0.0096,-0.012,0.0086,0.0072,0.013,0.013,0.0198,0.0199,0.0323,0.0194,0.0194,0.0193,0.0193,0,-0.0523,-0.0533,-0.057,-0.0579,-0.0589,-0.0594,-0.0577,-0.0566,-0.0517,-0.0461,-0.0431,-0.0354,-0.0252,-0.0138,-0.0061,0.0086,0.0119,0.0152,0.0179,0.0198,0.0196,0.0236,0.0218,0.0199,0.0198,0.0197,0.0196,0,-0.0499,-0.0531,-0.0553,-0.0583,-0.0589,-0.059,-0.0569,-0.0541,-0.0508,-0.0426,-0.04,-0.0304,-0.0158,-0.0064,0.0113,0.0147,0.0299,0.0312,0.0313,0.0336,0.0369,0.0349,0.0502,0.0521,0.0412,0.0413,0.0414,0,-0.0477,-0.0495,-0.0544,-0.0552,-0.0562,-0.0564,-0.0549,-0.0534,-0.0489,-0.0383,-0.0324,-0.0191,-0.0073,0.0148,0.0247,0.0387,0.0377,0.0465,0.0415,0.0395,0.0395,0.0376,0.0379,0.0519,0.0521,0.0522,0.0523,0,-0.043,-0.0459,-0.048,-0.051,-0.0514,-0.0502,-0.0479,-0.0447,-0.0397,-0.0316,-0.0183,-0.0088,0.0099,0.0273,0.0404,0.047,0.0469,0.049,0.0501,0.0514,0.0478,0.0501,0.0373,0.0533,0.0532,0.0531,0.0531,0.053,-0.0376,-0.0389,-0.0429,-0.0449,-0.0454,-0.0424,-0.039,-0.0341,-0.0256,-0.0123,-0.0067,0.0095,0.0268,0.0471,0.0525,0.0609,0.0577,0.0625,0.0614,0.0605,0.0587,0.0456,0.0611,0.061,0.061,0.0609,0.0609,0,-0.0302,-0.0331,-0.0353,-0.0375,-0.0357,-0.0376,-0.0321,-0.0264,-0.0147,-0.0041,0.0085,0.0303,0.0492,0.0599,0.0733,0.0745,0.0737,0.0732,0.0735,0.0741,0.0679,0.0642,0.0772,0.0772,0.0772,0.0772,0.0772,0.0772,-0.0257,-0.027,-0.0302,-0.0275,-0.0278,-0.0226,-0.0185,-0.0113,-0.0036,0.013,0.0258,0.0349,0.048,0.0706,0.0807,0.0813,0.0822,0.0822,0.0803,0.076,0.0749,0.0739,0.0702,0.0842,0.0843,0.0889,0.089,0.089]}],[{"header":{"parameterUnit":"m.s-1","parameterCategory":2,"la1":30.2991,"la2":30.254,"lo1":-89.0895,"lo2":-89.0444,"dy":0.0017,"dx":0.0017,"nx":28,"ny":28,"refTime":"2024-08-31T09:00:00:Z","depth":"2","parameterNumber":2,"parameterNumberName":"U-component_of_CURRENTS"},"data":[0,0,0,0,0,0,0,0,0,0,0,0,0,0,0,0,0,0,0,0,0,0,0,0,0,0,0,0,0,0,0,0,0,0,0,0,0,0,0,0,0,0,0,0,0,0,0,0,0,0,0,0,0,0,0,0,0,0,0.1076,0.1076,0,0.1062,0.1062,0.1062,0.1108,0.1109,0.1111,0.1112,0.1104,0.1103,0.1101,0,0,0,0,0,0,0,0,0,0,0,0,0,0.1115,0.1114,0.1076,0.1076,0.1075,0.1062,0.1062,0.1062,0.1108,0.111,0.1111,0.1113,0.1105,0.1103,0.1101,0,0,0,0,0,0,0,0,0,0,0,0,0,0.1099,0.1114,0.1076,0.1097,0.1099,0.1062,0.1062,0.1062,0.1107,0.111,0.1112,0.1114,0.1105,0.1103,0.1101,0.1045,0,0,0.1094,0.1093,0,0,0,0,0,0,0,0,0.11,0.1098,0.1094,0.1095,0.1097,0.1089,0.1073,0.1056,0.1107,0.1104,0.1112,0.1115,0.1098,0.1097,0.1089,0.1044,0.1044,0.1094,0.1092,0.1091,0.1091,0,0,0,0,0,0,0,0.1101,0.1098,0.107,0.1094,0.1096,0.1098,0.1098,0.107,0.1089,0.1104,0.1108,0.1106,0.1099,0.1091,0.1089,0.1044,0.1094,0.1092,0.109,0.1089,0.107,0.1071,0,0,0,0,0,0,0.1102,0.1099,0.1071,0.107,0.1104,0.1096,0.1096,0.1089,0.109,0.1092,0.1104,0.1108,0.1094,0.1092,0.1089,0.1114,0.1091,0.1089,0.1088,0.107,0.1071,0.1072,0,0,0,0,0,0,0.1103,0.1099,0.1071,0.1085,0.1082,0.1093,0.1085,0.1088,0.1113,0.1089,0.1092,0.113,0.1096,0.1092,0.1101,0.1111,0.1088,0.1086,0.1069,0.107,0.1071,0.1104,0,0,0,0,0,0,0.1104,0.1099,0.1107,0.1085,0.1081,0.1067,0.1083,0.1086,0.1106,0.1112,0.1111,0.1111,0.1097,0.1105,0.1099,0.1107,0.1084,0.1067,0.1069,0.1071,0.1102,0.1107,0.1111,0,0,0,0,0,0.1105,0.11,0.1107,0.1104,0.1086,0.1068,0.1066,0.1081,0.1106,0.1113,0.1126,0.1113,0.1111,0.1103,0.1096,0.1104,0.1067,0.1069,0.1071,0.11,0.1106,0.111,0,0,0,0,0,0,0.1121,0.1103,0.1111,0.1102,0.1096,0.1076,0.1083,0.1094,0.1107,0.1125,0.1115,0.1115,0.1131,0.1111,0.1103,0.1106,0.1089,0.109,0.1114,0.1119,0.1123,0.1121,0.1082,0,0,0,0,0,0.1125,0.1121,0.1104,0.1101,0.1099,0.1097,0.1098,0.1107,0.1108,0.1119,0.1121,0.1124,0.1123,0.1121,0.1116,0.1103,0.1124,0.1108,0.1112,0.1115,0.1111,0.1167,0.1176,0.1078,0.1078,0.1078,0,0,0.1129,0.1121,0.1119,0.1105,0.1102,0.1087,0.1104,0.1108,0.1108,0.1111,0.1126,0.114,0.1128,0.113,0.1133,0.1118,0.1158,0.1118,0.1121,0.1114,0.117,0.118,0.1188,0.1079,0.1079,0.1079,0,0,0.1125,0.1129,0.1123,0.1114,0.1113,0.1102,0.111,0.1108,0.1126,0.1131,0.1148,0.1174,0.1156,0.1159,0.1153,0.1173,0.1186,0.1175,0.1181,0.1236,0.1245,0.1253,0.1308,0.132,0.1168,0.1168,0.1168,0,0.1135,0.1121,0.1119,0.1107,0.1102,0.111,0.1101,0.1102,0.111,0.1126,0.1144,0.1169,0.1167,0.1172,0.1187,0.1181,0.1219,0.1162,0.1243,0.1251,0.1258,0.1312,0.1326,0.117,0.117,0.1169,0.1169,0,0.1117,0.1113,0.1108,0.1093,0.1086,0.1081,0.1075,0.1089,0.1115,0.1125,0.1164,0.1178,0.1196,0.1202,0.1196,0.1242,0.1257,0.1251,0.123,0.127,0.1325,0.1338,0.1172,0.1172,0.1171,0.1171,0,0,0.1121,0.11,0.1103,0.1102,0.1083,0.1077,0.1071,0.1074,0.1096,0.1121,0.1155,0.1172,0.121,0.1208,0.1222,0.1262,0.1357,0.128,0.1283,0.1336,0.1494,0.1357,0.1358,0.1376,0.1378,0.1379,0.1518,0,0.1114,0.1096,0.1083,0.1071,0.1063,0.1061,0.1057,0.1067,0.1091,0.1125,0.1159,0.1198,0.1201,0.1236,0.1276,0.1334,0.1391,0.132,0.1446,0.145,0.1323,0.1368,0.1168,0.1261,0.1531,0.1533,0.1535,0,0.1105,0.1095,0.1087,0.1076,0.1075,0.1073,0.1089,0.1085,0.1117,0.1145,0.1186,0.1219,0.1274,0.1286,0.1402,0.1363,0.1437,0.1482,0.1489,0.1352,0.1335,0.1262,0.1275,0.1557,0.1555,0.1553,0.1552,0,0.1122,0.11,0.1102,0.1096,0.108,0.1095,0.1094,0.1112,0.1125,0.1176,0.1208,0.1265,0.1319,0.1402,0.1483,0.1465,0.1621,0.1605,0.1555,0.1547,0.1392,0.1365,0.1714,0.1714,0.1713,0.1713,0.1713,0,0.1116,0.1121,0.1123,0.1125,0.1144,0.1126,0.1159,0.1164,0.1186,0.1211,0.1238,0.1274,0.1358,0.1439,0.1511,0.1561,0.1651,0.1561,0.1569,0.1397,0.137,0.1627,0.1615,0.1718,0.1717,0.1716,0.1715,0,0.1135,0.1131,0.1141,0.1146,0.1157,0.1178,0.1194,0.121,0.1228,0.1263,0.1284,0.1317,0.1409,0.1486,0.1625,0.1584,0.1657,0.1668,0.145,0.1426,0.1546,0.1534,0.1608,0.1604,0.1601,0.1598,0.1596,0,0.1132,0.1144,0.1175,0.1193,0.1206,0.1233,0.1248,0.1249,0.1256,0.1283,0.1298,0.1378,0.1413,0.1517,0.1465,0.1528,0.1662,0.138,0.1277,0.1531,0.1534,0.1527,0.152,0.1118,0.1112,0.1108,0.1104,0,0.1131,0.1167,0.1179,0.1222,0.1253,0.1265,0.1285,0.1288,0.1284,0.1304,0.1326,0.1353,0.1361,0.1257,0.1268,0.1288,0.1329,0.1276,0.1637,0.114,0.107,0.1072,0.1082,0.106,0.1064,0.1068,0.107,0.1072,0.1141,0.1163,0.1198,0.1236,0.1268,0.1277,0.1273,0.128,0.1279,0.1247,0.129,0.12,0.1119,0.0962,0.0973,0.0943,0.1054,0.1,0.1016,0.1037,0.0919,0.0843,0.0771,0.0773,0.0776,0.0778,0.0779,0,0.1119,0.1159,0.1197,0.1228,0.1244,0.1276,0.1272,0.1234,0.1218,0.1143,0.1132,0.0825,0.0715,0.07,0.0525,0.0503,0.0527,0.0536,0.0545,0.0585,0.0622,0.0485,0.0222,0.0221,0.022,0.022,0,0,0.1102,0.113,0.1153,0.1179,0.1214,0.1212,0.1201,0.1153,0.106,0.0881,0.0711,0.0666,0.0576,0.0335,0.0328,0.0256,0.0443,0.025,0.0681,0.0729,0.0766,0.0855,0.0682,0,0,0,0,0]},{"header":{"parameterUnit":"m.s-1","parameterCategory":2,"la1":30.2991,"la2":30.254,"lo1":-89.0895,"lo2":-89.0444,"dy":0.0017,"dx":0.0017,"nx":28,"ny":28,"refTime":"2024-08-31T09:00:00:Z","depth":"2","parameterNumber":3,"parameterNumberName":"V-component_of_CURRENTS"},"data":[0,0,0,0,0,0,0,0,0,0,0,0,0,0,0,0,0,0,0,0,0,0,0,0,0,0,0,0,0,0,0,0,0,0,0,0,0,0,0,0,0,0,0,0,0,0,0,0,0,0,0,0,0,0,0,0,0,0,-0.0102,-0.0102,0,-0.0124,-0.0124,-0.0124,-0.0157,-0.0157,-0.0158,-0.0158,-0.0139,-0.0138,-0.0137,0,0,0,0,0,0,0,0,0,0,0,0,0,-0.0085,-0.0085,-0.0102,-0.0102,-0.0103,-0.0124,-0.0124,-0.0124,-0.0157,-0.0157,-0.0158,-0.0159,-0.0139,-0.0138,-0.0137,0,0,0,0,0,0,0,0,0,0,0,0,0,-0.0098,-0.0086,-0.0102,-0.0121,-0.0123,-0.0124,-0.0124,-0.0124,-0.0156,-0.0157,-0.0158,-0.0159,-0.014,-0.0138,-0.0137,-0.011,0,0,-0.0132,-0.0131,0,0,0,0,0,0,0,0,-0.0098,-0.0099,-0.0118,-0.012,-0.0122,-0.0138,-0.0111,-0.0118,-0.0156,-0.0144,-0.0158,-0.0159,-0.0134,-0.0133,-0.0136,-0.0109,-0.0109,-0.0132,-0.0131,-0.013,-0.013,0,0,0,0,0,0,0,-0.0097,-0.0098,-0.0111,-0.0118,-0.0121,-0.0127,-0.013,-0.0113,-0.0133,-0.0145,-0.0147,-0.0149,-0.0135,-0.0138,-0.0136,-0.0108,-0.0132,-0.013,-0.0129,-0.0129,-0.0141,-0.0142,0,0,0,0,0,0,-0.0093,-0.0097,-0.011,-0.0112,-0.0111,-0.0127,-0.013,-0.0132,-0.0135,-0.0136,-0.0148,-0.0151,-0.014,-0.0138,-0.0135,-0.0153,-0.013,-0.0129,-0.0128,-0.014,-0.0141,-0.0143,0,0,0,0,0,0,-0.0092,-0.0094,-0.0109,-0.0105,-0.0107,-0.0126,-0.0129,-0.0132,-0.0155,-0.0138,-0.0139,-0.017,-0.014,-0.0137,-0.0149,-0.015,-0.0128,-0.0127,-0.0138,-0.014,-0.0142,-0.0156,0,0,0,0,0,0,-0.0092,-0.0094,-0.0102,-0.0105,-0.0107,-0.0116,-0.0128,-0.0132,-0.0154,-0.0157,-0.0156,-0.0154,-0.0141,-0.0152,-0.0148,-0.0148,-0.0125,-0.0137,-0.0139,-0.0142,-0.0154,-0.0158,-0.0162,0,0,0,0,0,-0.0091,-0.0092,-0.0102,-0.0104,-0.0115,-0.0116,-0.0118,-0.0134,-0.0154,-0.016,-0.0175,-0.0155,-0.0164,-0.0151,-0.0146,-0.0146,-0.0136,-0.0139,-0.0141,-0.0152,-0.0158,-0.0162,0,0,0,0,0,0,-0.0085,-0.0096,-0.0106,-0.0111,-0.0117,-0.0121,-0.013,-0.0145,-0.0162,-0.0172,-0.0166,-0.0165,-0.0178,-0.0166,-0.0153,-0.0161,-0.0148,-0.015,-0.0158,-0.0163,-0.0166,-0.0139,-0.0124,0,0,0,0,0,-0.0088,-0.0095,-0.0103,-0.0107,-0.0113,-0.0127,-0.0135,-0.0145,-0.0156,-0.0166,-0.017,-0.0178,-0.0181,-0.0178,-0.0178,-0.0173,-0.014,-0.0174,-0.0178,-0.0181,-0.0159,-0.0134,-0.0132,-0.0152,-0.0152,-0.0152,0,0,-0.0086,-0.0093,-0.0098,-0.0107,-0.0117,-0.0116,-0.0134,-0.0145,-0.0148,-0.0157,-0.0174,-0.0191,-0.0187,-0.0192,-0.0196,-0.0183,-0.016,-0.0185,-0.0187,-0.0163,-0.0136,-0.0134,-0.0132,-0.0154,-0.0154,-0.0153,0,0,-0.0077,-0.0095,-0.0097,-0.0102,-0.0116,-0.012,-0.0128,-0.0144,-0.0159,-0.0173,-0.019,-0.0207,-0.0212,-0.0207,-0.0204,-0.0227,-0.0187,-0.0242,-0.0225,-0.0202,-0.0199,-0.0196,-0.0146,-0.0138,-0.0235,-0.0235,-0.0235,0,-0.0079,-0.0081,-0.0096,-0.0096,-0.0102,-0.0123,-0.0123,-0.013,-0.0152,-0.0158,-0.018,-0.0205,-0.0209,-0.0201,-0.0221,-0.0229,-0.0207,-0.0204,-0.0203,-0.0199,-0.0196,-0.0146,-0.0137,-0.0236,-0.0236,-0.0236,-0.0236,0,-0.0064,-0.0073,-0.0074,-0.0082,-0.0087,-0.0092,-0.0101,-0.0114,-0.0141,-0.0149,-0.0169,-0.0187,-0.0198,-0.0212,-0.0222,-0.021,-0.0199,-0.0215,-0.0182,-0.0194,-0.0141,-0.0132,-0.0238,-0.0237,-0.0237,-0.0237,0,0,-0.0049,-0.0064,-0.0066,-0.0075,-0.0084,-0.0087,-0.0086,-0.0091,-0.0095,-0.0121,-0.0124,-0.015,-0.0173,-0.0173,-0.0195,-0.0176,-0.0144,-0.0189,-0.0188,-0.0122,-0.0075,-0.0024,-0.0009,-0.0168,-0.0166,-0.0165,-0.0045,0,-0.0039,-0.0043,-0.0047,-0.0051,-0.0057,-0.0069,-0.0067,-0.0072,-0.0087,-0.0094,-0.0107,-0.0127,-0.0154,-0.0178,-0.0161,-0.016,-0.0122,-0.0174,-0.0087,-0.0083,-0.0023,0.0003,-0.0028,0.008,-0.0035,-0.0034,-0.0032,0,-0.002,-0.003,-0.0037,-0.005,-0.0053,-0.0061,-0.0067,-0.0068,-0.0067,-0.0079,-0.0087,-0.0103,-0.0094,-0.0124,-0.0074,-0.0112,-0.0087,-0.0071,-0.0067,-0.0001,-0.0015,0.007,0.0102,-0.0016,-0.0018,-0.0019,-0.002,0,-0.0007,-0.002,-0.0032,-0.0037,-0.0051,-0.0064,-0.0077,-0.0076,-0.008,-0.0082,-0.0086,-0.007,-0.0082,-0.0045,-0.0019,-0.0054,0.0058,0.0015,0.0103,0.0108,0.0113,0.0116,0.008,0.008,0.0079,0.0079,0.0079,0,0.0011,0.0002,-0.004,-0.0048,-0.0071,-0.0079,-0.0097,-0.0099,-0.01,-0.0095,-0.0097,-0.0079,-0.0069,-0.0013,0.0017,0.0107,0.0092,0.0136,0.0148,0.0106,0.0107,0.0041,0.0035,0.0084,0.0083,0.0082,0.0081,0,0.003,0.0009,-0.0013,-0.005,-0.0069,-0.0093,-0.0128,-0.0128,-0.0133,-0.0124,-0.0129,-0.0088,-0.0007,0.005,0.0126,0.0153,0.0233,0.0272,0.0241,0.0248,0.026,0.0251,0.0382,0.0385,0.0388,0.039,0.0391,0,0.0041,0.0027,-0.0028,-0.0054,-0.0083,-0.0124,-0.0142,-0.0154,-0.0148,-0.0118,-0.0101,-0.0029,0.0072,0.023,0.028,0.0395,0.0345,0.041,0.0341,0.0296,0.0294,0.0281,0.0269,0.0342,0.0343,0.0344,0.0345,0,0.0054,0.0024,0.0003,-0.006,-0.0099,-0.0123,-0.0153,-0.0146,-0.0139,-0.0105,-0.0025,0.0065,0.0207,0.0325,0.0455,0.0494,0.0386,0.0436,0.0404,0.0269,0.0267,0.0262,0.025,0.0354,0.0353,0.0352,0.0352,0.0351,0.0059,0.0035,-0.0009,-0.0064,-0.0102,-0.0114,-0.0119,-0.0105,-0.0066,0.0022,0.0086,0.0245,0.0332,0.0552,0.0558,0.0504,0.0524,0.0481,0.0474,0.0466,0.0439,0.0441,0.0557,0.0558,0.0558,0.0558,0.0558,0,0.0063,0.003,-0.0012,-0.0063,-0.0088,-0.0123,-0.0114,-0.0083,-0.0012,0.0125,0.0248,0.0405,0.0547,0.0575,0.0515,0.0527,0.0465,0.0489,0.039,0.0385,0.0379,0.0341,0.0437,0.0436,0.0436,0.0435,0,0,0.0069,0.0034,0.0008,-0.0037,-0.008,-0.01,-0.0089,-0.0025,0.0076,0.0257,0.0382,0.062,0.0644,0.0597,0.0564,0.0471,0.0419,0.0452,0.0557,0.044,0.0434,0.0394,0.0334,0,0,0,0,0]}],[{"header":{"parameterUnit":"m.s-1","parameterCategory":2,"la1":30.2991,"la2":30.254,"lo1":-89.0895,"lo2":-89.0444,"dy":0.0017,"dx":0.0017,"nx":28,"ny":28,"refTime":"2024-08-31T09:00:00:Z","depth":"4","parameterNumber":2,"parameterNumberName":"U-component_of_CURRENTS"},"data":[0,0,0,0,0,0,0,0,0,0,0,0,0,0,0,0,0,0,0,0,0,0,0,0,0,0,0,0,0,0,0,0,0,0,0,0,0,0,0,0,0,0,0,0,0,0,0,0,0,0,0,0,0,0,0,0,0,0,-0.0246,-0.0245,0,-0.0202,-0.0202,-0.0201,-0.0167,-0.0167,-0.0167,-0.0166,-0.0107,-0.0106,-0.0104,0,0,0,0,0,0,0,0,0,0,0,0,0,-0.0272,-0.0271,-0.0246,-0.0245,-0.0245,-0.0203,-0.0202,-0.0201,-0.0167,-0.0167,-0.0167,-0.0166,-0.0107,-0.0106,-0.0104,0,0,0,0,0,0,0,0,0,0,0,0,0,-0.0247,-0.0271,-0.0246,-0.0224,-0.0221,-0.0203,-0.0202,-0.0201,-0.0167,-0.0167,-0.0167,-0.0166,-0.0108,-0.0106,-0.0104,-0.0098,0,0,-0.0098,-0.0097,0,0,0,0,0,0,0,0,-0.0248,-0.0245,-0.0227,-0.0225,-0.0223,-0.0191,-0.0189,-0.0166,-0.0167,-0.0186,-0.0166,-0.0166,-0.0135,-0.013,-0.0121,-0.0095,-0.0092,-0.0097,-0.0096,-0.0095,-0.0095,0,0,0,0,0,0,0,-0.025,-0.0247,-0.0227,-0.0227,-0.0224,-0.0207,-0.0203,-0.0184,-0.0162,-0.0185,-0.0183,-0.018,-0.0133,-0.0123,-0.012,-0.0092,-0.0097,-0.0096,-0.0094,-0.0093,-0.0008,-0.0007,0,0,0,0,0,0,-0.0259,-0.0249,-0.0229,-0.0226,-0.0236,-0.0207,-0.0202,-0.02,-0.0162,-0.0156,-0.018,-0.0178,-0.0127,-0.0122,-0.0117,-0.0078,-0.0095,-0.0093,-0.0092,-0.0009,-0.0008,-0.0007,0,0,0,0,0,0,-0.026,-0.0258,-0.023,-0.0237,-0.0233,-0.0207,-0.0205,-0.02,-0.0191,-0.0159,-0.0153,-0.0177,-0.0127,-0.012,-0.0088,-0.0077,-0.0092,-0.009,-0.0011,-0.0009,-0.0008,-0.0019,0,0,0,0,0,0,-0.0261,-0.0259,-0.0263,-0.0238,-0.0233,-0.0222,-0.0205,-0.0199,-0.019,-0.0187,-0.0154,-0.0148,-0.0126,-0.0091,-0.0086,-0.0074,-0.0089,-0.0012,-0.001,-0.0008,-0.002,-0.0018,-0.0016,0,0,0,0,0,-0.0262,-0.0267,-0.0264,-0.0262,-0.0239,-0.0223,-0.0218,-0.0198,-0.0191,-0.0188,-0.0155,-0.0149,-0.0075,-0.0089,-0.0083,-0.007,-0.0013,-0.001,-0.0008,-0.0021,-0.0018,-0.0017,0,0,0,0,0,0,-0.0277,-0.0264,-0.0259,-0.026,-0.0245,-0.0217,-0.0216,-0.0202,-0.0175,-0.0172,-0.014,-0.0131,-0.0099,-0.0081,-0.0097,-0.0038,-0.0042,-0.0038,-0.0053,-0.0051,-0.0049,-0.0047,-0.0087,0,0,0,0,0,-0.0285,-0.0289,-0.0269,-0.0271,-0.0266,-0.0243,-0.0236,-0.0221,-0.0194,-0.0183,-0.0155,-0.012,-0.0085,-0.0066,-0.0039,-0.001,0.0009,0.0005,0.0006,0.0008,0.0015,0.0068,0.0075,0.0001,0.0,0.0,0,0,-0.0293,-0.0286,-0.0289,-0.0275,-0.0264,-0.0254,-0.0237,-0.0228,-0.0215,-0.0181,-0.0153,-0.0119,-0.0077,-0.0039,-0.0023,-0.0023,0.0035,0.001,0.0011,0.0018,0.0072,0.0079,0.0085,0.0002,0.0002,0.0002,0,0,-0.0304,-0.0304,-0.0307,-0.0297,-0.0283,-0.0268,-0.0267,-0.0239,-0.0223,-0.0194,-0.0158,-0.0116,-0.0073,-0.003,-0.0006,0.0022,0.0039,0.0031,0.0045,0.0096,0.0103,0.0109,0.0118,0.0125,0.0036,0.0036,0.0036,0,-0.031,-0.0311,-0.0305,-0.0301,-0.0292,-0.0275,-0.0267,-0.0252,-0.0214,-0.0196,-0.0188,-0.0093,-0.0066,-0.0001,0.0016,0.0024,0.0047,0.003,0.0098,0.0104,0.0111,0.0119,0.0127,0.0036,0.0036,0.0036,0.0036,0,-0.0317,-0.0318,-0.0319,-0.0309,-0.03,-0.0293,-0.027,-0.0257,-0.0237,-0.021,-0.015,-0.0095,-0.0027,-0.0017,0.001,0.0077,0.0074,0.0088,0.0088,0.0117,0.0124,0.0132,0.0036,0.0036,0.0036,0.0036,0,0,-0.0319,-0.0323,-0.0322,-0.0317,-0.0302,-0.0291,-0.0279,-0.0251,-0.023,-0.0188,-0.0137,-0.0071,-0.0024,0.001,0.0056,0.0098,0.0151,0.0117,0.012,0.0118,0.0244,0.0164,0.0166,0.0185,0.0187,0.0188,0.0221,0,-0.032,-0.0322,-0.0318,-0.031,-0.0305,-0.029,-0.0275,-0.025,-0.022,-0.017,-0.0107,-0.0033,-0.0018,0.0042,0.0083,0.0145,0.0178,0.0139,0.0224,0.0226,0.0146,0.0175,0.0195,0.0227,0.0229,0.023,0.0231,0,-0.0317,-0.0319,-0.0318,-0.0305,-0.03,-0.029,-0.0258,-0.0237,-0.018,-0.0144,-0.0067,-0.0008,0.0085,0.0096,0.0197,0.0178,0.0215,0.0242,0.0244,0.0184,0.0163,0.02,0.0247,0.0245,0.0244,0.0243,0.0242,0,-0.0317,-0.0312,-0.0313,-0.0309,-0.0296,-0.0285,-0.0265,-0.0228,-0.0185,-0.0099,-0.0044,0.0046,0.0132,0.0189,0.0241,0.0244,0.0324,0.0334,0.0286,0.028,0.0345,0.0338,0.0403,0.0403,0.0403,0.0403,0.0403,0,-0.0313,-0.0312,-0.0312,-0.0313,-0.0294,-0.0278,-0.0236,-0.0211,-0.0135,-0.008,-0.0004,0.0051,0.0168,0.0222,0.0253,0.028,0.0337,0.0292,0.0293,0.0335,0.0327,0.0349,0.0342,0.0404,0.0404,0.0403,0.0403,0,-0.0314,-0.0319,-0.0317,-0.0308,-0.0296,-0.0277,-0.0206,-0.0175,-0.0104,-0.0022,0.0027,0.0101,0.0155,0.0221,0.0304,0.0299,0.0328,0.0321,0.0331,0.0331,0.0245,0.0238,0.0287,0.0285,0.0283,0.0281,0.028,0,-0.0312,-0.0319,-0.0315,-0.0305,-0.0298,-0.0256,-0.0228,-0.0158,-0.0118,-0.0021,0.0009,0.0096,0.0137,0.018,0.0226,0.0273,0.0273,0.0287,0.0296,0.0242,0.0239,0.0234,0.023,0.0277,0.0276,0.0276,0.0275,0,-0.0314,-0.0324,-0.0327,-0.0307,-0.0283,-0.0245,-0.02,-0.0164,-0.0088,-0.0016,0.002,0.0064,0.0103,0.0137,0.0182,0.0204,0.0281,0.0268,0.0273,0.0281,0.023,0.0228,0.0225,0.0268,0.0269,0.027,0.027,0,-0.0314,-0.032,-0.0327,-0.03,-0.0276,-0.0251,-0.0222,-0.0176,-0.012,-0.0016,-0.0032,0.0028,0.0081,0.0096,0.0111,0.015,0.0162,0.0176,0.0186,0.0194,0.0148,0.0069,0.0065,0,0,0,0,0,-0.0307,-0.0315,-0.0309,-0.0282,-0.026,-0.0245,-0.0213,-0.0185,-0.0121,-0.0092,-0.0043,-0.0017,0.0029,0.0023,0.0052,0.0059,0.0154,0.0087,0.0171,0.0231,0.0239,0.0193,0,0,0,0,0,0,-0.03,-0.0311,-0.0314,-0.0272,-0.0249,-0.022,-0.0215,-0.0178,-0.0164,-0.0101,-0.0087,-0.0023,0.0006,0.0033,0.0054,0.0062,0.0111,0.0125,0.0125,0.0227,0.0234,0.024,0.0195,0,0,0,0,0]},{"header":{"parameterUnit":"m.s-1","parameterCategory":2,"la1":30.2991,"la2":30.254,"lo1":-89.0895,"lo2":-89.0444,"dy":0.0017,"dx":0.0017,"nx":28,"ny":28,"refTime":"2024-08-31T09:00:00:Z","depth":"4","parameterNumber":3,"parameterNumberName":"V-component_of_CURRENTS"},"data":[0,0,0,0,0,0,0,0,0,0,0,0,0,0,0,0,0,0,0,0,0,0,0,0,0,0,0,0,0,0,0,0,0,0,0,0,0,0,0,0,0,0,0,0,0,0,0,0,0,0,0,0,0,0,0,0,0,0,0.0427,0.0428,0,0.0444,0.0444,0.0444,0.0455,0.0456,0.0456,0.0456,0.0475,0.0476,0.0476,0,0,0,0,0,0,0,0,0,0,0,0,0,0.0391,0.0391,0.0427,0.0428,0.0428,0.0444,0.0444,0.0444,0.0455,0.0456,0.0456,0.0456,0.0475,0.0476,0.0476,0,0,0,0,0,0,0,0,0,0,0,0,0,0.0406,0.0391,0.0427,0.0436,0.0437,0.0444,0.0444,0.0444,0.0455,0.0456,0.0456,0.0456,0.0475,0.0476,0.0476,0.0475,0,0,0.0478,0.0478,0,0,0,0,0,0,0,0,0.0405,0.0407,0.0434,0.0435,0.0437,0.0449,0.0439,0.0455,0.0455,0.0447,0.0456,0.0456,0.0467,0.0469,0.047,0.0476,0.0477,0.0478,0.0478,0.0479,0.0479,0,0,0,0,0,0,0,0.0404,0.0406,0.0433,0.0435,0.0436,0.0435,0.0437,0.0442,0.0455,0.0448,0.0449,0.0453,0.0468,0.0469,0.047,0.0477,0.0478,0.0479,0.0479,0.0479,0.0483,0.0482,0,0,0,0,0,0,0.0405,0.0406,0.0432,0.0434,0.0422,0.0435,0.0438,0.0444,0.0455,0.0457,0.0452,0.0453,0.0468,0.047,0.0471,0.049,0.0479,0.0479,0.0479,0.0483,0.0483,0.0482,0,0,0,0,0,0,0.0404,0.0407,0.0432,0.042,0.0424,0.0436,0.0442,0.0444,0.0452,0.0458,0.046,0.046,0.0468,0.047,0.0486,0.049,0.0479,0.048,0.0483,0.0483,0.0482,0.0514,0,0,0,0,0,0,0.0403,0.0407,0.0415,0.0421,0.0424,0.0438,0.0442,0.0444,0.0454,0.0455,0.0465,0.0467,0.0469,0.0485,0.0486,0.049,0.048,0.0483,0.0483,0.0483,0.0514,0.0515,0.0517,0,0,0,0,0,0.0401,0.0407,0.0415,0.0419,0.0434,0.0438,0.044,0.0448,0.0454,0.0457,0.0469,0.0467,0.0482,0.0486,0.0487,0.0492,0.0484,0.0483,0.0483,0.0513,0.0515,0.0517,0,0,0,0,0,0,0.0395,0.0409,0.0418,0.0428,0.0436,0.0441,0.0446,0.0452,0.0463,0.0468,0.0473,0.0476,0.0486,0.0482,0.0486,0.0488,0.0478,0.0478,0.0501,0.0503,0.0504,0.0514,0.0481,0,0,0,0,0,0.0398,0.0408,0.0418,0.0428,0.0432,0.0441,0.0446,0.0452,0.0461,0.0466,0.0477,0.0482,0.0483,0.049,0.0489,0.0499,0.0485,0.0497,0.0499,0.05,0.0507,0.048,0.048,0.0481,0.0481,0.0481,0,0,0.04,0.0409,0.0415,0.0428,0.0435,0.0442,0.0444,0.0453,0.0464,0.0467,0.049,0.049,0.0485,0.0494,0.0497,0.0496,0.0493,0.05,0.0501,0.0508,0.048,0.048,0.048,0.048,0.048,0.048,0,0,0.0402,0.0415,0.0422,0.0428,0.0441,0.0446,0.045,0.0463,0.0474,0.0494,0.0494,0.0502,0.051,0.051,0.0509,0.0517,0.0499,0.0508,0.0532,0.0505,0.0505,0.0505,0.0493,0.0492,0.0513,0.0513,0.0513,0,0.0403,0.0418,0.0424,0.0431,0.0442,0.0449,0.046,0.0468,0.0487,0.0502,0.0505,0.052,0.0518,0.0525,0.0529,0.0522,0.0506,0.053,0.0508,0.0508,0.0507,0.0494,0.0492,0.0514,0.0514,0.0514,0.0514,0,0.0407,0.0424,0.0427,0.0443,0.0451,0.0462,0.0474,0.0489,0.0507,0.0521,0.0541,0.0543,0.0555,0.0547,0.0545,0.0539,0.0529,0.0511,0.0507,0.0509,0.0496,0.0493,0.0517,0.0516,0.0516,0.0515,0,0,0.0402,0.0427,0.0432,0.0448,0.0463,0.0472,0.0489,0.0512,0.0531,0.055,0.0577,0.058,0.0589,0.0587,0.0581,0.0561,0.0545,0.0539,0.0537,0.0535,0.0494,0.0482,0.0478,0.0519,0.0519,0.0519,0.0489,0,0.0409,0.0433,0.0442,0.0468,0.0483,0.0496,0.0513,0.0534,0.0554,0.058,0.0588,0.0613,0.0601,0.0616,0.0593,0.0554,0.0538,0.0555,0.0487,0.0485,0.048,0.0474,0.0517,0.0487,0.0487,0.0486,0.0486,0,0.0412,0.0433,0.0461,0.0496,0.0503,0.0519,0.0554,0.0574,0.0602,0.0625,0.0648,0.0651,0.0652,0.0634,0.0579,0.0588,0.055,0.0515,0.0512,0.049,0.0468,0.0482,0.0481,0.0481,0.0481,0.0482,0.0482,0,0.0415,0.0448,0.0477,0.0487,0.0519,0.0541,0.0567,0.0595,0.0637,0.0669,0.0699,0.0686,0.0702,0.064,0.0589,0.0578,0.0516,0.0489,0.0444,0.0444,0.045,0.0451,0.0446,0.0446,0.0446,0.0446,0.0446,0,0.0418,0.0441,0.0486,0.0501,0.0543,0.0564,0.0626,0.0637,0.0693,0.0734,0.0737,0.0743,0.0701,0.0664,0.0596,0.0521,0.0524,0.0451,0.0433,0.0465,0.0467,0.0449,0.0449,0.0445,0.0446,0.0446,0.0446,0,0.0409,0.0438,0.0474,0.0522,0.0547,0.0581,0.0684,0.0724,0.0767,0.0817,0.0838,0.0809,0.0742,0.0697,0.0599,0.0545,0.0464,0.044,0.0499,0.0484,0.0406,0.0409,0.0372,0.0371,0.037,0.037,0.037,0,0.0401,0.0422,0.0492,0.0527,0.0554,0.0634,0.0687,0.0762,0.0808,0.0833,0.0838,0.0808,0.0775,0.0624,0.0571,0.047,0.045,0.0424,0.0394,0.0412,0.0397,0.0401,0.0404,0.0369,0.0368,0.0368,0.0368,0,0.0384,0.0415,0.0448,0.0525,0.0587,0.0669,0.0748,0.0766,0.0829,0.0901,0.0819,0.0753,0.0684,0.0579,0.0538,0.0451,0.0443,0.0417,0.0416,0.0388,0.0407,0.0394,0.0398,0.0366,0.0366,0.0366,0.0367,0,0.0371,0.0394,0.0449,0.0514,0.0601,0.0641,0.0685,0.072,0.0768,0.0786,0.0751,0.0679,0.0677,0.0569,0.0505,0.0454,0.0417,0.0378,0.0379,0.0381,0.0394,0.0421,0.0368,0,0,0,0,0,0.0357,0.039,0.044,0.05,0.0585,0.0634,0.0701,0.0736,0.0788,0.0724,0.0742,0.0666,0.0557,0.0506,0.0443,0.0481,0.0411,0.0405,0.0367,0.0354,0.0357,0.037,0,0,0,0,0,0,0.0353,0.0396,0.0425,0.0487,0.0527,0.0607,0.0632,0.0645,0.0615,0.0652,0.0586,0.0651,0.0543,0.0598,0.0443,0.0435,0.0396,0.0398,0.0396,0.0353,0.0355,0.0357,0.0371,0,0,0,0,0]}]]